Theta_e
366 364 364 361 360 360 362 361 361 361 362 360 360 361 361 363 365 362 361 364 361 362 365 368 366 366 364 365 368 365 368 367 369 368 365 364 364 360 355 357 355 356
366 364 365 362 362 365 366 363 363 362 362 365 363 362 364 366 363 365 366 364 363 362 366 365 367 367 366 364 366 365 365 368 362 362 366 365 363 360 356 356 353 354
366 366 364 362 361 361 359 361 364 363 362 360 362 365 363 366 363 363 365 363 361 358 364 367 366 367 365 365 368 365 364 365 364 363 367 367 364 364 360 356 356 354
366 365 363 361 361 360 362 361 363 362 363 361 361 359 362 359 364 363 365 364 362 362 362 363 365 363 364 364 367 364 366 368 366 366 369 368 365 362 364 363 359 355
363 366 365 363 360 362 361 362 360 358 360 361 360 363 361 368 366 366 363 362 364 363 365 365 364 365 365 364 366 363 364 363 364 367 363 362 365 363 359 360 361 358
364 365 366 362 365 365 360 360 361 359 359 358 359 361 362 363 364 364 361 359 358 360 358 360 363 362 363 364 364 363 362 362 363 366 363 363 362 363 361 362 365 362
358 361 362 363 363 363 361 362 361 362 359 360 360 360 362 361 359 364 365 362 360 359 360 363 364 362 364 366 365 365 365 367 369 371 367 363 365 363 361 363 364 362
354 358 359 360 361 362 362 361 361 361 362 362 359 360 363 362 363 362 365 364 363 362 363 364 367 370 366 366 366 365 365 362 361 366 368 364 365 368 366 361 363 365
352 354 355 357 357 360 357 359 360 361 362 361 359 359 362 362 362 360 362 365 363 364 367 367 370 367 366 365 365 368 367 364 360 362 363 361 362 362 361 363 361 362
353 352 351 353 352 355 357 357 358 360 363 361 359 358 358 362 362 361 363 366 364 367 368 367 369 367 364 365 368 368 367 366 366 366 366 366 364 365 365 365 364 364
351 349 349 350 349 351 352 354 355 356 359 360 361 357 358 357 362 362 364 367 361 365 368 367 367 367 366 364 364 365 366 365 365 367 363 364 364 366 366 366 366 365
352 349 347 348 347 346 347 349 352 356 356 357 359 356 358 357 358 360 362 365 364 364 365 367 367 367 367 366 362 363 363 364 366 366 365 365 364 361 361 362 361 361
353 352 350 347 346 346 346 347 348 349 352 356 355 354 356 355 356 359 361 363 365 364 363 365 367 366 369 370 366 363 363 364 361 362 363 362 363 361 360 361 361 360
355 355 352 351 349 352 349 347 347 347 348 349 351 352 351 355 355 354 357 360 363 361 363 363 366 366 369 369 366 365 361 361 362 360 360 361 360 361 360 357 358 358
357 357 357 355 351 351 350 349 349 349 349 350 351 349 348 350 351 353 354 355 358 360 359 360 359 362 365 368 366 367 367 362 359 361 359 361 360 359 359 358 357 356
362 360 359 359 355 353 355 353 352 351 349 349 349 349 352 355 354 352 352 354 354 359 358 357 356 356 370 364 367 366 365 362 361 363 360 359 359 359 356 357 356 356
366 365 362 360 361 358 360 360 358 354 354 355 353 353 354 357 354 352 350 351 353 355 356 355 356 351 342 338 343 353 362 363 362 361 359 361 358 358 358 354 353 352
368 368 367 366 364 362 363 365 363 364 360 361 358 357 359 357 355 355 356 354 352 352 353 354 350 333 330 333 337 338 350 363 357 355 353 355 353 350 355 355 353 352
368 367 367 367 368 369 370 363 372 371 372 369 365 363 361 360 359 357 357 356 353 352 350 349 349 329 327 329 332 332 335 352 355 355 352 351 352 353 354 355 354 356
363 360 359 360 363 364 359 368 367 368 366 366 366 366 363 361 358 358 357 358 356 354 355 356 347 327 324 325 328 329 331 338 355 354 353 350 351 352 352 355 355 356
359 351 352 354 355 360 361 363 355 362 365 367 367 365 363 363 360 358 358 358 356 352 357 345 332 318 320 321 322 324 328 338 356 354 350 348 348 349 356 355 359 357
357 355 355 354 356 357 359 360 360 362 362 363 363 364 366 365 364 361 360 359 358 359 355 345 332 315 317 317 318 321 325 356 361 359 355 352 350 355 358 361 361 361
350 350 354 351 354 355 353 355 355 354 352 353 355 356 357 359 358 356 351 352 356 355 345 342 335 319 313 313 316 316 336 360 362 361 362 361 360 358 353 357 359 362
350 351 351 352 353 353 352 353 354 352 352 354 354 353 353 352 347 346 347 349 349 348 343 338 333 321 312 311 313 313 331 356 358 363 360 360 363 360 358 354 354 357
351 351 350 349 348 349 349 348 348 349 349 351 349 348 348 350 348 345 344 345 344 341 341 335 332 328 314 312 312 312 331 355 361 354 354 360 360 355 354 354 351 347
349 348 348 347 346 345 346 346 348 348 346 343 343 343 343 347 348 346 342 341 341 340 338 335 333 330 323 311 310 313 316 348 354 353 354 354 350 354 349 351 353 348
Wind_Speed
7 7 6 6 6 5 5 6 6 6 5 5 5 5 5 5 4 4 5 5 5 5 4 4 3 3 3 2 2 3 1 1 2 3 2 2 3 3 3 1 2 3
7 7 6 6 5 4 3 4 5 5 5 3 3 4 4 5 5 5 5 5 5 5 5 5 4 4 3 3 4 3 2 2 3 2 2 2 3 3 3 3 2 2
8 8 7 7 7 8 8 6 5 4 5 6 5 4 5 5 5 5 5 5 5 6 5 4 4 4 4 3 3 4 4 3 3 3 1 2 3 3 4 4 3 1
9 8 8 8 7 8 7 7 6 5 5 5 5 6 4 5 5 6 5 6 5 4 6 6 5 5 5 5 4 4 4 3 4 3 2 3 3 4 4 3 4 4
10 9 8 7 6 6 7 6 7 7 6 5 6 5 6 3 5 5 6 6 5 6 5 5 6 5 5 4 5 5 4 5 4 4 4 4 4 5 5 4 3 3
10 9 8 8 7 6 7 7 7 7 7 7 6 7 6 6 5 5 6 7 7 7 7 7 7 6 6 6 5 5 5 5 4 5 5 4 5 4 5 2 2 3
11 10 10 9 9 9 8 8 7 6 7 6 7 5 6 7 6 6 6 6 6 6 6 5 5 5 5 5 5 5 5 4 3 3 5 5 5 5 5 4 4 4
12 11 10 10 10 10 10 8 8 8 7 7 8 7 6 7 7 7 6 6 6 6 5 5 5 4 6 5 5 5 6 5 6 5 5 5 5 5 5 5 4 5
11 11 11 11 11 10 11 10 9 9 9 9 8 8 7 6 7 7 7 7 6 5 5 5 5 5 6 5 5 5 5 6 5 6 6 6 6 6 6 5 6 5
11 11 12 12 11 10 12 11 10 8 7 9 9 8 8 7 7 8 7 7 6 5 6 6 5 6 6 6 5 5 6 5 5 4 5 6 6 6 6 5 6 6
13 12 12 12 12 11 11 11 10 11 9 8 6 9 9 7 8 7 7 7 7 7 7 7 7 7 6 7 7 6 7 7 7 7 6 6 6 6 6 6 6 6
11 12 12 13 13 13 13 12 10 7 9 9 7 9 7 10 9 8 7 8 7 8 7 7 7 7 7 6 8 8 7 7 7 7 7 7 7 7 7 7 7 7
10 11 11 12 12 11 11 11 11 12 10 8 9 11 8 8 9 9 8 8 8 8 8 7 8 8 6 7 8 8 7 6 8 7 8 7 7 8 8 8 8 8
10 11 11 10 9 8 9 10 10 11 11 11 10 9 8 8 8 9 9 8 9 9 8 8 7 7 7 9 9 6 3 6 6 8 8 7 7 7 7 8 8 8
10 10 9 8 9 9 10 9 8 7 7 8 8 9 9 10 9 7 8 9 8 8 9 9 8 9 8 6 6 6 3 1 4 8 10 8 7 7 8 8 8 7
10 9 8 8 9 8 8 9 8 8 8 8 7 7 7 6 6 10 9 7 8 6 7 8 8 3 6 4 3 4 4 3 1 2 7 10 8 7 8 8 8 8
9 9 9 10 9 9 8 8 8 8 8 6 7 8 8 7 6 7 9 8 9 9 10 8 2 7 7 7 6 5 3 4 3 3 9 11 9 7 7 9 8 9
8 8 8 8 9 9 9 7 7 6 7 7 9 10 8 8 9 9 7 9 8 8 8 2 8 8 9 9 8 7 5 3 6 8 9 8 8 10 8 8 8 8
8 8 8 7 6 7 7 9 7 6 6 6 7 7 8 9 8 8 9 9 9 8 7 5 7 12 10 10 8 7 6 4 6 9 10 9 9 8 6 7 9 7
7 6 8 6 6 6 7 5 5 6 7 6 6 6 7 7 9 9 8 8 8 8 3 9 8 10 10 9 7 7 6 5 6 9 10 10 9 9 8 8 7 8
6 6 6 7 8 6 5 4 4 5 5 4 5 6 7 7 8 9 8 8 8 8 6 8 7 10 10 9 10 8 7 5 6 8 9 10 10 10 8 8 7 8
3 4 5 1 3 4 5 5 4 3 4 2 1 3 4 6 7 8 8 8 7 8 8 8 8 12 9 10 10 8 8 5 5 7 8 9 8 7 6 9 11 11
5 4 5 8 8 7 7 7 6 4 2 1 1 1 2 3 5 4 11 10 6 8 10 9 9 11 11 11 10 10 7 4 5 6 6 7 5 9 7 4 5 8
5 6 6 7 8 8 6 5 4 4 4 3 3 2 3 4 8 6 5 3 5 8 9 9 9 11 13 12 12 11 8 5 5 4 3 5 3 6 7 6 9 16
9 7 6 6 5 5 4 5 6 5 3 4 4 4 6 7 9 7 6 6 9 11 14 12 9 10 14 13 13 13 10 5 2 2 4 3 2 5 6 5 5 10
10 10 8 7 8 8 8 7 6 6 6 7 7 6 7 5 7 7 7 7 8 9 9 9 9 9 12 14 15 15 15 8 4 5 4 4 4 4 3 3 2 5
Wind_Direction
172 172 177 178 180 178 168 175 178 176 190 180 186 184 182 182 180 175 184 169 179 181 170 178 178 193 204 196 205 236 268 241 287 162 229 283 293 299 290 351 257 227
180 176 174 183 167 173 171 181 177 180 174 200 181 168 177 167 180 182 180 173 177 185 175 176 187 198 217 202 188 227 244 225 243 244 179 227 272 282 275 262 291 331
187 177 179 188 178 182 185 183 173 200 179 187 182 185 170 177 181 177 179 196 187 183 179 190 187 193 203 205 205 226 212 224 252 251 213 242 272 284 291 298 283 281
191 191 188 193 189 176 193 174 184 197 194 178 190 179 202 166 175 174 181 197 194 195 186 192 196 195 194 199 201 229 212 227 231 261 254 248 250 269 270 269 280 279
186 193 190 199 194 178 188 188 193 181 206 176 191 169 181 177 179 178 181 183 205 195 194 195 193 205 194 201 205 228 221 221 212 220 239 244 247 241 254 255 278 284
186 188 191 196 183 192 196 188 207 184 194 182 200 174 183 184 200 202 184 191 193 210 198 196 193 202 198 198 207 227 232 237 210 198 223 240 259 257 259 240 235 252
189 189 190 193 193 188 206 185 197 206 190 195 185 199 183 183 198 206 200 199 211 205 207 197 203 206 206 203 205 214 232 244 268 205 229 238 236 262 269 260 245 259
191 190 193 194 198 186 203 188 190 200 193 206 185 193 199 195 190 196 200 195 210 199 211 207 192 202 218 206 208 212 226 216 217 229 239 248 261 248 245 261 243 238
191 191 195 201 202 194 201 195 192 194 192 202 202 186 192 209 184 206 185 197 205 199 200 213 193 208 220 225 221 218 229 235 229 211 220 237 235 238 246 247 253 248
192 196 196 198 204 206 204 204 194 183 195 199 205 198 179 197 199 198 178 192 205 194 192 210 204 215 224 217 224 226 232 234 254 250 235 233 239 247 242 239 247 246
196 199 197 198 206 204 211 213 201 188 193 198 206 236 173 190 190 206 184 186 206 200 200 206 208 213 220 226 219 218 224 226 224 224 231 238 244 244 243 247 249 253
203 204 202 200 206 208 203 204 209 187 192 210 208 221 203 189 179 200 191 195 212 209 202 202 209 212 214 231 235 221 217 228 222 224 225 226 231 229 231 234 236 232
204 211 210 204 204 216 211 202 198 198 198 171 205 225 209 212 187 187 197 201 203 217 211 196 208 213 205 218 232 238 246 231 237 229 229 232 228 237 238 231 233 234
198 206 214 214 206 212 231 221 207 202 197 194 198 207 217 215 223 187 194 202 202 213 214 212 194 222 207 219 229 219 190 286 310 271 250 236 238 238 241 244 237 235
197 201 209 210 210 203 215 232 228 220 207 202 200 209 208 207 211 242 216 203 191 205 216 223 208 210 213 216 236 233 229 159 231 293 284 254 248 249 242 246 253 250
198 197 199 209 213 203 208 216 224 216 215 210 210 214 230 232 214 208 227 222 207 174 234 228 219 204 50 354 219 219 207 233 223 252 281 274 251 246 252 253 254 255
193 196 194 200 201 206 204 212 218 215 222 205 208 216 216 220 225 226 226 223 229 209 208 224 205 51 20 50 45 67 240 210 214 232 254 262 263 252 257 263 257 251
187 181 182 187 197 195 197 201 201 212 205 206 207 202 206 214 210 218 222 226 224 229 229 193 75 39 29 26 27 17 21 284 253 240 239 249 262 265 257 256 260 269
193 185 172 178 190 185 176 184 182 178 178 181 192 202 202 209 215 211 211 223 234 230 232 106 78 34 13 18 17 12 15 312 254 258 262 251 248 255 263 281 278 274
191 205 187 188 199 180 213 175 176 186 196 199 201 202 213 210 213 213 213 212 221 227 122 74 63 24 22 9 8 3 6 338 263 263 261 266 274 274 266 255 268 272
188 212 243 220 207 194 194 187 149 196 174 185 196 205 204 209 219 210 209 204 205 210 142 91 59 28 23 10 7 355 350 302 271 268 263 258 252 255 265 269 255 268
214 197 207 242 242 201 188 176 181 163 168 168 223 249 254 223 213 219 206 202 197 191 132 87 64 32 19 18 4 349 329 277 258 264 271 274 275 284 353 360 353 341
168 217 206 192 203 207 199 191 182 164 130 119 100 346 288 291 314 359 17 359 359 69 81 82 63 30 22 21 8 355 319 280 269 266 279 292 299 50 67 68 37 21
121 161 164 171 172 180 176 163 129 127 158 133 111 100 46 65 77 51 93 105 58 70 80 81 66 39 25 18 13 3 338 297 285 304 301 264 355 54 53 42 44 45
143 132 108 98 112 123 130 140 136 138 101 73 52 47 58 81 103 95 74 58 57 63 62 68 62 42 26 17 18 13 359 310 298 245 267 299 20 52 37 22 59 49
138 132 117 110 106 96 94 94 101 97 98 82 61 61 69 63 92 99 86 69 69 67 60 55 58 49 29 20 24 18 9 353 5 356 346 13 13 50 63 317 100 86